Vertical_Velocity
1 -4 -3 -5 -3 -2 -0 0 -1 2 6 -15 1 1 4 5 -3 -1 1 0 1 0 3 2 2 2 2 1 0 -1 0 -3 -2 -2 2 5 2 2 2 1 2 2 -3 5
-1 -2 -4 -0 1 1 1 0 3 7 2 -21 1 6 3 1 3 -1 0 2 2 1 1 1 0 -0 -2 -0 1 1 -1 -1 -1 -1 0 1 2 2 2 1 0 0 -2 0
-5 -8 2 1 1 2 0 -3 0 -10 3 -0 -6 3 3 8 -0 1 2 3 0 1 1 1 -1 -0 2 -1 -1 -1 -1 -0 -0 -0 1 1 3 3 4 2 1 -1 -2 -1
-3 -4 -1 1 -0 -3 1 -1 -1 -0 -3 -3 2 1 2 3 4 -0 2 1 2 1 1 1 0 -0 -0 -1 2 1 1 -0 -1 0 -0 -1 -1 -1 -1 0 2 2 1 -0
-16 1 1 1 -5 -2 -9 -0 -3 -2 -0 -3 5 -7 7 -0 4 3 4 2 2 1 -0 -1 -1 0 1 0 -1 -0 0 0 -1 -0 -1 -1 -1 -0 1 1 2 2 2 -0
-1 0 -2 -5 1 -1 -2 -2 -3 -1 -1 0 -3 -7 1 0 -6 4 5 3 1 1 -0 -0 1 1 0 1 0 0 -1 -1 -1 -1 -1 -1 -1 -1 1 1 0 -0 0 1
0 -0 0 -1 -4 -3 -1 -3 -2 -3 -2 -6 -1 2 6 3 3 -4 0 3 2 1 -0 0 -1 -1 -1 -2 -1 -1 -0 -1 -1 -1 -1 -2 -2 -1 -1 -2 -2 -1 -1 -1
-3 -0 -1 -1 -3 -9 -2 -6 -7 -5 -2 -3 -2 -0 7 1 2 1 1 1 1 0 1 0 0 0 0 0 0 0 -1 -1 -2 -2 -3 -2 -2 -3 -3 -3 -2 -2 -2 -2
-1 0 -0 -1 0 -5 -6 2 -6 -2 -1 -3 1 4 6 3 6 3 2 -0 1 1 0 0 1 1 1 0 -1 -1 -0 -0 -0 -1 -0 -1 -1 -2 -3 -2 -1 -1 -1 -1
-1 -3 -0 0 -2 -1 -3 -3 -2 -2 -0 1 2 -0 1 6 4 4 3 1 1 0 -1 -1 -1 -1 0 0 -0 1 -1 -2 -2 -1 -1 -2 -2 -1 -1 -1 -1 -1 -1 -1
-0 -8 -3 -3 -2 0 -4 1 -0 -4 -2 -3 -2 1 1 -4 -2 -1 3 2 -0 -1 -1 -1 -1 -1 -1 -1 -2 -2 -1 -2 -1 -1 -2 -2 -2 -1 -1 -1 -1 -2 -1 -1
1 -2 -1 1 -0 1 -0 -0 -0 -3 -2 -1 -3 1 1 1 0 -2 3 1 0 -0 -0 -1 -1 -2 -2 -2 -2 -3 -3 -3 -3 -3 -2 -2 -1 -1 -1 -1 -1 -1 -1 -1
-1 -1 -2 -1 -2 -2 -2 -0 0 -1 -2 -1 -4 -1 1 2 1 5 -2 0 -1 -1 -1 -1 -1 -2 -2 -1 -1 -0 -1 -1 -1 -1 -2 -2 -2 -2 -2 -1 -1 -1 -1 -1
-2 -1 -4 -8 -3 -3 -1 -1 -0 -3 -3 -2 -1 2 2 2 0 2 1 -0 0 -1 -1 -1 0 0 -0 -0 -1 -0 0 -1 -1 -0 -0 -1 -1 -1 -1 -2 -1 -1 -1 -1
-4 -2 -2 2 1 -2 0 0 0 -2 -0 -5 -2 -2 -2 -1 -2 0 -1 -0 1 -1 0 1 -1 -1 -1 -1 -1 -0 -0 -1 -2 -1 -2 -2 -1 -1 -1 -1 -1 -1 -1 -2
-0 2 -1 0 1 -1 -1 -0 -0 -0 1 -1 -1 -0 -1 2 1 0 0 1 -0 -0 -0 -1 0 1 1 -0 -0 -1 -0 0 -1 -1 -1 -2 -1 -1 -2 -2 -3 -3 -3 -2
-2 -2 -2 1 -1 -0 -5 -0 1 1 -0 -1 -1 -5 0 2 0 -0 -1 -1 -1 -1 -1 -1 -3 -3 -1 -1 -1 -1 -0 -0 1 -0 -1 -1 -1 -1 -1 -1 -1 -1 -2 -3
-1 -1 -2 -1 -2 -5 -4 0 1 -4 1 0 -0 1 -0 -1 -1 -2 -1 -1 -1 -1 -3 -3 -3 -2 -0 -0 -0 -3 -1 -1 -1 -1 -2 -1 -1 -1 -1 -1 -1 -0 -1 -2
-1 -2 -2 -6 -1 -2 -2 -1 -2 -4 -2 -1 -2 1 -1 -0 -1 -1 -1 -1 -1 -3 -3 -3 -2 -3 -4 -3 -3 -4 -2 -3 -2 -3 -4 -4 -4 -5 -4 -4 -5 -3 -4 -3
-2 -2 -7 -1 -4 -4 -5 -1 -0 -1 -5 -1 -2 -1 -2 -0 -3 -4 0 0 -1 0 -0 -2 -1 -2 -2 -2 -2 -3 -3 -3 -3 -3 -4 -3 -3 -2 -3 -2 -4 -4 -3 -3
-1 -2 -2 0 -1 -5 -3 -0 -1 -13 -15 -2 -2 -1 -1 -2 -1 -0 0 1 2 -0 -1 -1 -3 -3 -1 -1 -2 -4 -3 -1 -2 -3 -2 -2 -1 -2 -2 -3 -3 -3 -3 -2
-3 -4 -1 -2 -3 -6 -1 -2 -10 -7 3 -1 -2 -2 -2 -2 -1 -1 -1 -1 -2 -2 -2 0 -2 -1 1 0 -1 -2 -3 -1 -1 -1 -3 -3 -3 -3 -4 -3 -3 -2 -2 -2
-4 -4 -5 -5 -6 1 2 -1 -2 -1 -3 -2 0 0 -0 -0 -1 -1 -3 -2 -1 -1 -2 -0 -1 -4 -0 0 1 -3 -3 -2 -2 -3 -2 -2 -0 -1 0 -2 -3 -4 -1 -1
-2 0 -3 -4 -4 0 1 -0 -1 -1 -1 -1 -1 -2 -3 -3 -1 -2 -1 -1 -2 -0 -3 -2 -1 -2 -5 0 -1 -1 0 1 -1 -3 -3 -3 -2 -2 -3 -0 0 -2 -1 -2
-3 -2 -1 -1 -1 -0 -1 -1 -0 -0 -1 -1 -2 -1 -1 -1 -1 -2 -2 -1 -1 -3 -2 -1 -2 -2 -4 -2 -3 1 1 0 -2 -1 -2 -3 -2 -3 -4 -1 -2 -3 -2 1
1 -4 -4 -6 -2 -3 -1 -1 -2 -1 -0 -0 -2 -1 1 -1 -0 1 -1 -1 -2 -3 1 -2 -2 -4 -4 -1 -4 -2 1 1 -0 -2 -2 0 -1 -1 -0 -2 -7 5 0 -1
Height
1477 1484 1486 1483 1484 1483 1487 1492 1495 1500 1512 1523 1541 1553 1562 1565 1567 1570 1571 1571 1570 1569 1569 1566 1562 1559 1555 1552 1549 1546 1545 1543 1543 1544 1546 1547 1548 1549 1550 1550 1551 1550 1548 1551
1480 1483 1478 1478 1480 1482 1485 1487 1497 1508 1516 1521 1548 1560 1566 1568 1571 1573 1573 1573 1573 1572 1570 1567 1564 1560 1556 1553 1550 1548 1546 1545 1544 1544 1545 1546 1547 1548 1548 1548 1549 1549 1548 1549
1478 1471 1471 1475 1477 1480 1480 1489 1491 1496 1520 1532 1539 1564 1569 1573 1573 1575 1575 1575 1574 1573 1571 1568 1565 1561 1558 1554 1551 1549 1548 1546 1545 1545 1545 1545 1546 1546 1547 1547 1547 1547 1548 1548
1472 1466 1468 1472 1474 1475 1480 1477 1481 1498 1501 1519 1522 1550 1568 1571 1575 1576 1577 1576 1575 1574 1573 1570 1567 1563 1560 1557 1555 1553 1551 1548 1547 1546 1545 1544 1544 1544 1545 1546 1546 1546 1546 1546
1469 1466 1468 1471 1468 1470 1476 1470 1478 1486 1493 1501 1519 1531 1559 1566 1574 1577 1578 1577 1577 1576 1574 1572 1569 1567 1564 1560 1557 1555 1553 1551 1549 1548 1547 1546 1545 1545 1545 1545 1545 1544 1544 1544
1464 1463 1464 1465 1466 1466 1470 1474 1479 1486 1494 1505 1497 1506 1554 1558 1564 1575 1578 1578 1578 1577 1576 1574 1572 1570 1566 1563 1560 1558 1555 1553 1552 1550 1549 1547 1547 1546 1546 1544 1543 1542 1541 1541
1464 1465 1464 1464 1469 1469 1470 1480 1503 1504 1506 1500 1486 1500 1558 1565 1567 1571 1576 1578 1579 1578 1577 1575 1573 1570 1567 1564 1561 1559 1557 1555 1553 1551 1550 1549 1548 1547 1545 1544 1542 1541 1539 1538
1472 1480 1467 1463 1466 1469 1473 1473 1488 1490 1497 1493 1495 1527 1558 1567 1570 1573 1576 1577 1578 1578 1577 1575 1573 1571 1568 1566 1563 1561 1558 1556 1555 1553 1551 1550 1549 1547 1546 1544 1542 1540 1538 1537
1465 1469 1467 1466 1465 1466 1469 1473 1470 1477 1475 1490 1544 1565 1567 1568 1571 1574 1576 1577 1578 1577 1576 1575 1573 1572 1570 1567 1564 1562 1560 1558 1556 1554 1553 1551 1549 1547 1546 1544 1543 1540 1538 1536
1460 1470 1467 1467 1466 1467 1467 1467 1475 1480 1482 1483 1523 1551 1543 1563 1568 1572 1575 1577 1577 1577 1576 1575 1574 1572 1570 1568 1566 1564 1561 1559 1557 1555 1553 1551 1549 1547 1545 1543 1541 1539 1537 1535
1460 1461 1473 1468 1482 1481 1473 1470 1469 1470 1473 1475 1500 1527 1551 1553 1562 1569 1573 1575 1576 1576 1576 1576 1574 1573 1570 1568 1566 1563 1561 1559 1557 1555 1553 1551 1549 1546 1544 1542 1539 1537 1535 1532
1463 1469 1487 1486 1485 1484 1485 1487 1483 1475 1475 1487 1489 1546 1558 1557 1563 1567 1572 1574 1575 1576 1576 1575 1574 1572 1569 1567 1564 1562 1559 1557 1555 1553 1551 1549 1547 1544 1542 1539 1537 1534 1531 1529
1463 1474 1496 1487 1488 1486 1493 1496 1494 1491 1494 1498 1499 1547 1561 1562 1566 1570 1572 1574 1574 1575 1575 1574 1572 1570 1567 1565 1562 1560 1558 1555 1553 1551 1548 1546 1544 1542 1539 1536 1534 1531 1528 1526
1465 1477 1482 1476 1481 1486 1497 1502 1501 1502 1512 1515 1536 1556 1564 1565 1566 1569 1571 1572 1573 1573 1573 1572 1570 1567 1565 1562 1559 1557 1555 1553 1550 1547 1545 1542 1540 1537 1535 1532 1530 1527 1524 1521
1468 1482 1487 1491 1491 1496 1508 1509 1507 1515 1531 1520 1545 1553 1559 1564 1565 1568 1569 1571 1571 1571 1571 1569 1566 1564 1562 1559 1557 1555 1552 1549 1546 1544 1541 1538 1536 1533 1530 1528 1525 1523 1520 1517
1470 1487 1486 1498 1497 1502 1519 1522 1518 1523 1535 1543 1548 1557 1560 1562 1564 1566 1568 1568 1568 1567 1567 1565 1563 1561 1558 1555 1553 1550 1548 1545 1542 1539 1537 1534 1531 1528 1524 1521 1519 1516 1514 1511
1472 1481 1492 1510 1501 1504 1522 1543 1531 1537 1543 1542 1540 1553 1557 1562 1563 1564 1564 1564 1564 1564 1563 1561 1559 1556 1554 1552 1549 1546 1543 1540 1538 1535 1532 1529 1526 1522 1519 1516 1512 1509 1506 1503
1472 1478 1494 1515 1505 1516 1543 1541 1539 1542 1549 1549 1550 1554 1557 1560 1562 1561 1561 1561 1562 1562 1560 1558 1555 1552 1550 1547 1545 1541 1538 1536 1532 1530 1527 1524 1521 1518 1514 1511 1507 1504 1500 1497
1473 1481 1502 1510 1528 1542 1545 1542 1541 1540 1552 1553 1554 1556 1558 1560 1559 1558 1559 1559 1559 1558 1555 1552 1550 1547 1545 1542 1539 1536 1533 1530 1527 1525 1522 1520 1517 1513 1510 1507 1503 1500 1496 1492
1477 1479 1488 1510 1518 1518 1536 1539 1540 1542 1544 1551 1552 1554 1556 1557 1562 1556 1556 1556 1555 1553 1550 1547 1545 1543 1540 1538 1535 1531 1529 1526 1523 1521 1518 1516 1513 1509 1506 1502 1498 1495 1492 1488
1488 1495 1505 1504 1534 1539 1537 1537 1540 1541 1545 1547 1550 1552 1553 1555 1555 1554 1553 1552 1550 1547 1545 1542 1540 1538 1535 1533 1530 1527 1524 1522 1519 1516 1514 1511 1508 1505 1501 1497 1494 1490 1486 1483
1500 1504 1511 1517 1528 1523 1534 1539 1538 1541 1542 1545 1548 1549 1550 1550 1550 1549 1548 1545 1543 1541 1539 1537 1534 1532 1530 1528 1525 1522 1519 1517 1513 1510 1508 1505 1502 1499 1495 1492 1488 1485 1481 1478
1512 1516 1514 1526 1529 1531 1532 1534 1536 1539 1541 1544 1546 1547 1547 1546 1545 1544 1542 1540 1538 1536 1534 1532 1529 1526 1525 1522 1520 1516 1513 1510 1507 1504 1501 1498 1495 1492 1489 1485 1481 1478 1476 1472
1517 1517 1523 1528 1533 1532 1533 1535 1537 1539 1540 1542 1543 1543 1543 1542 1541 1539 1538 1536 1533 1531 1528 1526 1523 1520 1518 1516 1513 1510 1507 1504 1500 1496 1493 1490 1487 1484 1481 1479 1476 1472 1469 1465
1517 1517 1524 1535 1533 1533 1533 1534 1535 1537 1539 1540 1540 1540 1539 1538 1537 1535 1532 1530 1528 1525 1523 1521 1517 1514 1510 1508 1506 1503 1500 1496 1492 1488 1485 1481 1478 1476 1473 1470 1468 1465 1462 1460
1516 1517 1521 1524 1522 1525 1528 1532 1534 1536 1537 1537 1537 1537 1536 1534 1532 1530 1527 1525 1522 1519 1517 1514 1511 1507 1503 1500 1496 1494 1491 1488 1483 1479 1476 1473 1471 1467 1465 1462 1458 1458 1455 1454